ORBCOMM-X 1 21576U 91050C 25346.74872268 .00000562 00000+0 17899-3 0 9999 2 21576 98.3230 49.5242 0003857 25.1231 335.0147 14.43435697807870 ORBCOMM FM01 1 23545U 95017A 25347.02119334 .00011166 00000+0 10766-2 0 9991 2 23545 69.9634 347.3325 0003739 338.4938 21.6060 14.93089451639170 ORBCOMM FM02 1 23546U 95017B 25347.02877887 .00014663 00000+0 13554-2 0 9999 2 23546 69.9649 5.9399 0004836 355.6814 4.4300 14.94659876638842 ORBCOMM FM08 1 25112U 97084A 25346.96604806 .00002596 00000+0 75238-3 0 9997 2 25112 45.0120 229.2000 0006650 69.0404 291.1159 14.46595751467259 ORBCOMM FM10 1 25113U 97084B 25346.97502396 .00002411 00000+0 70522-3 0 9997 2 25113 45.0135 231.8681 0005460 34.9754 325.1456 14.46343214642390 ORBCOMM FM11 1 25114U 97084C 25346.94203840 .00002446 00000+0 71892-3 0 9996 2 25114 45.0121 232.9908 0006253 36.4362 323.6914 14.46084408467342 ORBCOMM FM12 1 25115U 97084D 25346.97106642 .00002311 00000+0 68115-3 0 9997 2 25115 45.0125 232.5827 0005369 33.5807 326.5384 14.46107854467144 ORBCOMM FM09 1 25116U 97084E 25346.95114013 .00002064 00000+0 61447-3 0 9993 2 25116 45.0130 233.8059 0006632 24.0130 336.1030 14.45948380467343 ORBCOMM FM05 1 25117U 97084F 25346.98703168 .00002231 00000+0 65083-3 0 9998 2 25117 45.0130 229.1334 0003003 32.1388 327.9647 14.46707314466490 ORBCOMM FM06 1 25118U 97084G 25346.76274824 .00002737 00000+0 78681-3 0 9996 2 25118 45.0120 229.7354 0001944 27.3126 19.8198 14.46869958467386 ORBCOMM FM07 1 25119U 97084H 25346.97322404 .00002466 00000+0 71264-3 0 9997 2 25119 45.0118 229.4734 0003850 30.6307 329.4770 14.46881585467408 ORBCOMM FM03 1 25158U 98007B 25346.96576462 .00001979 00000+0 73069-3 0 9993 2 25158 107.9633 142.9616 0046575 294.2732 65.3547 14.35026316449689 ORBCOMM FM04 1 25159U 98007C 25346.98914263 .00002037 00000+0 74859-3 0 9995 2 25159 107.9626 146.3522 0042427 291.5111 68.1509 14.35271975449872 ORBCOMM FM17 1 25413U 98046A 25346.79730448 .00001644 00000+0 61440-3 0 9996 2 25413 44.9927 134.4028 0001964 48.7777 311.3239 14.35536568428837 ORBCOMM FM18 1 25414U 98046B 25346.86651754 .00002168 00000+0 73914-3 0 9998 2 25414 44.9932 46.6102 0003096 129.9061 230.2060 14.39154930429988 ORBCOMM FM19 1 25415U 98046C 25346.72698554 .00002129 00000+0 72937-3 0 9994 2 25415 44.9941 49.5456 0001901 136.3066 15.7073 14.38973411429918 ORBCOMM FM20 1 25416U 98046D 25346.60125304 .00001844 00000+0 65484-3 0 9992 2 25416 44.9940 56.0865 0001792 215.6240 144.4488 14.37665088429937 ORBCOMM FM16 1 25417U 98046E 25347.00197015 .00002241 00000+0 75683-3 0 9990 2 25417 44.9940 43.3139 0003553 152.1601 207.9438 14.39532581430018 ORBCOMM FM15 1 25418U 98046F 25346.88448124 .00001981 00000+0 67943-3 0 9996 2 25418 44.9970 49.5628 0003417 153.3287 206.7738 14.39160928429981 ORBCOMM FM14 1 25419U 98046G 25346.85461994 .00002166 00000+0 73234-3 0 9990 2 25419 44.9958 47.3974 0002260 165.2145 194.8770 14.39579276429958 ORBCOMM FM13 1 25420U 98046H 25346.92191631 .00001736 00000+0 61271-3 0 9998 2 25420 44.9973 56.8658 0003627 118.3918 241.7296 14.38198572428966 ORBCOMM FM21 1 25475U 98053A 25346.83365867 .00001490 00000+0 53679-3 0 9990 2 25475 45.0066 143.2296 0001296 83.1964 276.9031 14.37794121422951 ORBCOMM FM22 1 25476U 98053B 25346.87326513 .00002054 00000+0 70543-3 0 9996 2 25476 45.0052 136.3762 0002553 63.2949 296.8161 14.38967041423003 ORBCOMM FM23 1 25477U 98053C 25346.73931182 .00001588 00000+0 56639-3 0 9997 2 25477 45.0065 145.5168 0002090 59.1666 300.9388 14.38032009423090 ORBCOMM FM24 1 25478U 98053D 25346.81260301 .00002013 00000+0 69680-3 0 9999 2 25478 45.0054 141.8349 0001874 74.3089 285.7966 14.38653817423162 ORBCOMM FM25 1 25479U 98053E 25346.78764481 .00001894 00000+0 65866-3 0 9992 2 25479 45.0054 140.2515 0004324 73.8948 286.2377 14.38621787423457 ORBCOMM FM26 1 25480U 98053F 25346.78149299 .00001631 00000+0 58539-3 0 9996 2 25480 45.0049 138.0732 0006290 87.0775 273.0793 14.37595117423348 ORBCOMM FM27 1 25481U 98053G 25346.77127409 .00002204 00000+0 75826-3 0 9990 2 25481 45.0030 140.4632 0001079 127.2119 232.8828 14.38655902423380 ORBCOMM FM28 1 25482U 98053H 25346.64989256 .00001939 00000+0 67080-3 0 9990 2 25482 45.0048 78.3169 0004281 140.0183 220.0982 14.38787346424059 ORBCOMM FM30 1 25980U 99065A 25346.95947075 .00001585 00000+0 56838-3 0 9990 2 25980 45.0323 323.2602 0006046 204.9304 155.1253 14.37764928360179 ORBCOMM FM31 1 25981U 99065B 25346.94110089 .00001513 00000+0 54554-3 0 9991 2 25981 45.0237 316.8007 0004517 239.3032 120.7371 14.37691225359729 ORBCOMM FM32 1 25982U 99065C 25346.68842947 .00001651 00000+0 60209-3 0 9995 2 25982 45.0168 335.7692 0006802 223.8973 136.1335 14.36748820360269 ORBCOMM FM33 1 25983U 99065D 25346.98984064 .00001513 00000+0 51501-3 0 9998 2 25983 45.0274 228.5743 0007807 248.8294 111.1722 14.40530005361840 ORBCOMM FM36 1 25984U 99065E 25346.97669057 .00002245 00000+0 77081-3 0 9994 2 25984 45.0393 323.2761 0000759 140.2209 219.8696 14.38712630360169 ORBCOMM FM35 1 25985U 99065F 25347.01829361 .00001715 00000+0 61286-3 0 9998 2 25985 45.0406 329.5670 0004655 239.7299 120.3089 14.37619898360517 ORBCOMM FM34 1 25986U 99065G 25346.98490986 .00001545 00000+0 55748-3 0 9998 2 25986 45.0400 330.1931 0003003 196.3061 163.7692 14.37570445360628 ORBCOMM FM38 1 33060U 08031A 25346.98243540 .00003042 00000+0 40355-3 0 9997 2 33060 48.4378 182.6473 0004395 96.7209 263.4207 14.82263951941260 ORBCOMM FM41 1 33061U 08031B 25346.99853617 .00002847 00000+0 38341-3 0 9995 2 33061 48.4412 190.9834 0003545 79.4338 73.0621 14.81820556940746 ORBCOMM FM29 1 33062U 08031C 25346.96645566 .00002934 00000+0 39285-3 0 9990 2 33062 48.4367 198.7060 0005263 77.3903 64.5635 14.81967134940651 ORBCOMM FM39 1 33063U 08031D 25346.94875385 .00002734 00000+0 38157-3 0 9998 2 33063 48.4387 225.0872 0006266 44.0442 316.0972 14.80408310940274 ORBCOMM FM37 1 33064U 08031E 25346.97887804 .00002551 00000+0 35624-3 0 9994 2 33064 48.4377 213.1865 0004783 65.7090 27.1799 14.80605255940538 ORBCOMM FM40 1 33065U 08031F 25347.02239066 .00003622 00000+0 46587-3 0 9993 2 33065 48.4392 193.8858 0005794 84.2143 70.4737 14.83109685940699 VESSELSAT 1 1 37840U 11058C 25346.97049844 .00000414 00000+0 81028-4 0 9993 2 37840 19.9616 92.0280 0013702 353.8658 6.1578 14.11398818731594 ORBCOMM FM109 1 40086U 14040A 25347.00141961 .00001210 00000+0 29412-3 0 9994 2 40086 47.0031 251.5806 0001160 68.0515 292.0494 14.58545532607167 ORBCOMM FM107 1 40087U 14040B 25346.74669847 .00001192 00000+0 28967-3 0 9996 2 40087 47.0047 253.6734 0001251 350.4891 9.5971 14.58620485607201 ORBCOMM FM106 1 40088U 14040C 25346.68475536 .00002071 00000+0 37209-3 0 9996 2 40088 47.0601 61.6598 0016619 180.1538 179.9351 14.70029955609736 ORBCOMM FM111 1 40089U 14040D 25346.95601651 .00005257 00000+0 58916-3 0 9993 2 40089 47.0000 245.9222 0029017 328.5086 31.4074 14.87723314616834 ORBCOMM FM104 1 40090U 14040E 25346.86370308 .00001150 00000+0 29032-3 0 9992 2 40090 47.0057 288.8918 0017010 301.1475 58.7742 14.57008677606675 ORBCOMM FM103 1 40091U 14040F 25347.00302087 .00001066 00000+0 26346-3 0 9990 2 40091 47.0051 253.1211 0001799 1.0327 359.0563 14.58535283590208 ORBCOMM FM114 1 41179U 15081A 25346.88279464 .00001004 00000+0 25020-3 0 9991 2 41179 47.0035 162.6441 0001651 66.2785 293.8274 14.58561651530559 ORBCOMM FM119 1 41180U 15081B 25346.67334114 .00001216 00000+0 29568-3 0 9990 2 41180 47.0010 72.9922 0001110 196.6898 163.3951 14.58501861531779 ORBCOMM FM105 1 41181U 15081C 25346.64685694 .00000606 00000+0 21511-3 0 9992 2 41181 47.0012 95.4989 0001121 23.0742 337.0188 14.45404501526560 ORBCOMM FM110 1 41182U 15081D 25346.87276475 .00001352 00000+0 32413-3 0 9993 2 41182 47.0001 162.1945 0002757 287.4377 72.6208 14.58580238530420 ORBCOMM FM118 1 41183U 15081E 25346.77023465 .00001056 00000+0 26117-3 0 9997 2 41183 47.0022 162.9762 0003183 251.3841 108.6699 14.58573731530513 ORBCOMM FM112 1 41184U 15081F 25346.97843652 .00001233 00000+0 29864-3 0 9997 2 41184 46.9998 70.5283 0000646 72.4835 287.6121 14.58578109531762 ORBCOMM FM113 1 41185U 15081G 25346.61319107 .00001491 00000+0 35371-3 0 9998 2 41185 47.0012 72.6099 0000479 107.8872 252.2066 14.58572228531692 ORBCOMM FM115 1 41186U 15081H 25346.81201330 .00001325 00000+0 29057-3 0 9999 2 41186 46.9988 269.7784 0000688 212.7273 147.3572 14.62921509533925 ORBCOMM FM108 1 41187U 15081J 25346.98674710 .00001586 00000+0 37406-3 0 9990 2 41187 47.0061 342.3518 0001931 34.1490 325.9519 14.58555864532894 ORBCOMM FM117 1 41188U 15081K 25347.02108561 .00001550 00000+0 36615-3 0 9995 2 41188 47.0024 340.8882 0002169 46.5113 313.5953 14.58581584532943 ORBCOMM FM116 1 41189U 15081L 25346.65889837 .00001639 00000+0 38511-3 0 9991 2 41189 47.0028 72.3701 0002565 264.9145 95.1448 14.58572872531701